Waarnemingen

Advertentie
Mijn weer
St-Hubert, België (6476): temperatuur & dauwpunt: 31.03.2020 16:00:00 - 06.04.2020 16:00:00 (CEST)St-Hubert, België (6476): luchtdruk: 31.03.2020 16:00:00 - 06.04.2020 16:00:00 (CEST)St-Hubert, België (6476): zicht: 31.03.2020 16:00:00 - 06.04.2020 16:00:00 (CEST)
Datum & Tijd tt [°C] td [°C] ppp [hPa] vv [km]
06.04.2020 16:00:00 17,2 -0,6 1021,2 24
06.04.2020 15:00:00 16,9 0,6 1020,8 30
06.04.2020 14:00:00 16,3 0,5 1020,6 35
06.04.2020 13:00:00 15,4 0,4 1020,5 28
06.04.2020 12:00:00 14,4 -0,5 1020,5 30
06.04.2020 11:00:00 13,0 -1,0 1020,3 28
06.04.2020 10:00:00 10,9 -0,5 1020,3 30
06.04.2020 09:00:00 9,6 -0,5 1020,0 35
06.04.2020 08:00:00 7,9 -0,8 1020,1 40
06.04.2020 07:00:00 7,9 -0,6 1019,3 40
06.04.2020 06:00:00 8,9 -0,8 1018,6 45
06.04.2020 05:00:00 8,6 -0,8 1018,4 40
06.04.2020 04:00:00 9,4 -0,5 1018,2 40
06.04.2020 03:00:00 9,9 -1,1 1018,1 35
06.04.2020 02:00:00 10,1 -1,6 1018,2 45
06.04.2020 01:00:00 10,6 -1,5 1018,3 45
06.04.2020 00:00:00 11,1 -2,1 1018,2 45
05.04.2020 23:00:00 11,4 -1,9 1018,1 45
05.04.2020 22:00:00 12,2 -1,9 1018,1 45
05.04.2020 21:00:00 12,5 -0,2 1018,0 45
05.04.2020 20:00:00 14,2 -0,2 1017,5 40
05.04.2020 19:00:00 15,7 -0,5 1017,3 35
05.04.2020 18:00:00 16,7 1,0 1017,1 35
05.04.2020 17:00:00 16,7 1,1 1017,6 24
05.04.2020 16:00:00 16,7 0,9 1018,2 35
05.04.2020 15:00:00 16,2 0,4 1018,7 30
05.04.2020 14:00:00 15,7 -0,3 1019,3 23
05.04.2020 13:00:00 13,7 0,2 1020,2 30
05.04.2020 12:00:00 12,9 -0,1 1020,8 24
05.04.2020 11:00:00 11,5 -0,3 1021,2 26
05.04.2020 10:00:00 9,6 -1,1 1021,8 35
05.04.2020 09:00:00 7,8 -1,3 1022,3 30
05.04.2020 08:00:00 6,3 -1,6 1022,6 30
05.04.2020 07:00:00 6,0 -1,5 1022,3 30
05.04.2020 06:00:00 5,8 -1,4 1022,2 25
05.04.2020 05:00:00 6,0 -2,0 1022,1 35
05.04.2020 04:00:00 6,0 -1,9 1022,3 35
05.04.2020 03:00:00 6,2 -2,0 1022,5 30
05.04.2020 02:00:00 5,8 -2,3 1023,2 40
05.04.2020 01:00:00 5,9 -2,3 1023,4 40
05.04.2020 00:00:00 5,9 -2,1 1023,5 45
04.04.2020 23:00:00 6,0 -1,4 1023,5 45
04.04.2020 22:00:00 4,7 -0,9 1024,2 45
04.04.2020 21:00:00 6,5 -0,4 1023,6 45
04.04.2020 20:00:00 8,9 -1,0 1022,7 40
04.04.2020 19:00:00 10,9 -1,5 1022,1 35
04.04.2020 18:00:00 11,2 -1,3 1021,9 35
04.04.2020 17:00:00 11,2 -0,9 1022,0 35
04.04.2020 16:00:00 11,3 -0,1 1022,5 28
04.04.2020 15:00:00 10,3 -0,3 1023,2 35
04.04.2020 14:00:00 9,7 -0,7 1023,6 30
04.04.2020 13:00:00 8,3 -0,8 1024,3 35
04.04.2020 12:00:00 8,3 -0,6 1024,5 25
04.04.2020 11:00:00 6,9 -1,2 1024,7 30
04.04.2020 10:00:00 4,4 -2,7 1024,7 30
04.04.2020 09:00:00 3,1 -3,6 1024,7 40
04.04.2020 08:00:00 2,2 -4,1 1024,4 40
04.04.2020 07:00:00 1,5 -4,2 1024,2 40
04.04.2020 06:00:00 1,3 -3,8 1023,9 45
04.04.2020 05:00:00 2,3 -4,1 1023,4 45
04.04.2020 04:00:00 1,6 -2,8 1023,3 45
04.04.2020 03:00:00 2,5 -3,4 1023,1 35
04.04.2020 02:00:00 0,6 -2,5 1023,5 40
04.04.2020 01:00:00 2,2 -1,4 1023,1 29
04.04.2020 00:00:00 1,8 -1,9 1022,9 27
03.04.2020 23:00:00 0,8 -2,0 1022,7 24
03.04.2020 22:00:00 4,0 -1,4 1021,6 29
03.04.2020 21:00:00 4,6 -1,7 1020,7 28
03.04.2020 20:00:00 5,6 -1,8 1020,0 35
03.04.2020 19:00:00 6,4 -1,5 1019,7 30
03.04.2020 18:00:00 6,7 -1,9 1019,2 30
03.04.2020 17:00:00 6,7 -2,3 1019,0 35
03.04.2020 16:00:00 7,2 -1,8 1018,7 35
03.04.2020 15:00:00 7,0 -2,0 1018,5 30
03.04.2020 14:00:00 7,3 -1,4 1018,3 28
03.04.2020 13:00:00 6,8 -0,5 1018,1 29
03.04.2020 12:00:00 6,5 -0,8 1017,8 35
03.04.2020 11:00:00 5,6 0,0 1017,6 29
03.04.2020 10:00:00 4,9 2,4 1017,1 15
03.04.2020 09:00:00 3,5 2,3 1016,9 5
03.04.2020 08:00:00 3,1 2,1 1016,4 4,5
03.04.2020 07:00:00 3,3 2,2 1015,8 -
03.04.2020 06:00:00 2,9 1,4 1015,5 9
03.04.2020 05:00:00 2,8 0,7 1015,3 13
03.04.2020 04:00:00 2,8 0,5 1014,9 16
03.04.2020 03:00:00 2,2 -0,1 1015,1 15
03.04.2020 02:00:00 2,3 -1,0 1015,4 15
03.04.2020 01:00:00 1,5 -1,6 1015,7 16
03.04.2020 00:00:00 1,6 -1,8 1015,5 17
02.04.2020 23:00:00 2,6 -1,6 1015,1 17
02.04.2020 22:00:00 3,8 -1,3 1014,9 16
02.04.2020 21:00:00 4,0 -1,9 1014,7 20
02.04.2020 20:00:00 4,0 -2,6 1014,4 30
02.04.2020 19:00:00 5,7 -3,0 1013,8 29
02.04.2020 18:00:00 6,6 -3,5 1013,5 24
02.04.2020 17:00:00 6,1 -3,4 1013,8 35
02.04.2020 16:00:00 6,0 -3,8 1014,1 30
02.04.2020 15:00:00 5,3 -3,4 1014,6 30
02.04.2020 14:00:00 5,3 -2,4 1014,9 19
02.04.2020 13:00:00 5,7 -1,4 1015,1 19
02.04.2020 12:00:00 4,5 -2,6 1015,6 24
02.04.2020 11:00:00 3,7 -1,3 1015,9 19
02.04.2020 10:00:00 2,0 -1,3 1016,2 11
02.04.2020 09:00:00 -1,5 -2,5 1017,1 1,9
02.04.2020 08:00:00 -1,5 -3,1 1016,9 -
02.04.2020 07:00:00 -2,2 -3,6 1017,2 -
02.04.2020 06:00:00 -1,7 -3,6 1017,3 10
02.04.2020 05:00:00 -1,1 -3,9 1017,3 17
02.04.2020 04:00:00 -1,3 -5,3 1017,9 24
02.04.2020 03:00:00 -0,9 -5,1 1018,2 29
02.04.2020 02:00:00 -0,2 -5,9 1018,3 35
02.04.2020 01:00:00 0,9 -6,6 1018,4 40
02.04.2020 00:00:00 2,3 -7,9 1018,4 40
01.04.2020 23:00:00 1,9 -7,5 1018,7 40
01.04.2020 22:00:00 3,3 -7,9 1018,5 40
01.04.2020 21:00:00 4,0 -8,0 1018,4 45
01.04.2020 20:00:00 5,8 -6,7 1017,8 35
01.04.2020 19:00:00 7,6 -6,0 1017,7 35
01.04.2020 18:00:00 8,4 -6,3 1017,7 35
01.04.2020 17:00:00 8,7 -7,1 1018,0 40
01.04.2020 16:00:00 8,3 -6,3 1018,6 35
01.04.2020 15:00:00 7,5 -6,1 1019,5 30
01.04.2020 14:00:00 7,0 -6,2 1020,2 40
01.04.2020 13:00:00 6,3 -7,8 1021,3 35
01.04.2020 12:00:00 5,4 -7,1 1022,4 30
01.04.2020 11:00:00 4,2 -8,1 1023,3 29
01.04.2020 10:00:00 2,9 -8,0 1023,7 35
01.04.2020 09:00:00 1,1 -7,5 1024,1 40
01.04.2020 08:00:00 -1,8 -5,6 1024,9 45
01.04.2020 07:00:00 -1,4 -8,8 1025,0 45
01.04.2020 06:00:00 -1,5 -7,9 1025,2 45
01.04.2020 05:00:00 -1,9 -6,8 1025,9 45
01.04.2020 04:00:00 -1,4 -7,5 1026,3 45
01.04.2020 03:00:00 -1,7 -6,6 1026,7 40
01.04.2020 02:00:00 -1,3 -6,9 1026,9 40
01.04.2020 01:00:00 -1,4 -5,8 1027,3 40
01.04.2020 00:00:00 -1,0 -5,7 1027,5 40
31.03.2020 23:00:00 -0,5 -5,9 1028,0 40
31.03.2020 22:00:00 1,3 -5,9 1027,8 40
31.03.2020 21:00:00 2,2 -6,1 1027,7 40
31.03.2020 20:00:00 4,3 -6,4 1026,9 45
31.03.2020 19:00:00 6,4 -7,0 1026,3 40
31.03.2020 18:00:00 6,9 -6,0 1026,1 30
31.03.2020 17:00:00 7,2 -6,7 1026,4 40
31.03.2020 16:00:00 6,8 -7,9 1027,0 35

tt = temperatuur
td = dauwpunt
ppp = luchtdruk
vv = zicht

Weerstations in de omgeving